ATC SCHEDULE

ATC (0): Portugal vACC
No ATC scheduled
Free Web Hosting - Your Website need to be migrated

Transfer your website

  • 24/7 Customer support
  • 99.99% Uptime guarantee
  • Unlimited websites
Start Now

18,969,513 Users trusts us from all over the world!

Get Started

Meet your success halfway. Web hosting with Real power. Single & Premium Hosting plans for any project!

The power of cutting-edge hardware meets intuitive software built on years of experience - you get all this and more with Hostinger. Every tool you need to start your online success story. Take advantage of an ever-increasing list of features and powerful resources.

Free Web Hosting
FREE
  • No Script Auto Installer
  • Limited 1 GB Disk Space
  • Limited 10 GB Bandwidth
  • No Email Service
  • No Live Support
  • No Backups
  • View all features
Premium
$14.49
82% off
$2.59/mo
  • 30-Days Risk-Free
  • 20 GB Disk Space
  • Unlimited Bandwidth
  • Unlimited Email Accounts
  • Unlimited Databases
  • Weekly Backups
  • Unlimited Websites
  • Live 24/7/365 Support
  • FREE Domain
  • SSH Access
  • View all features
Practice beats theory You can memorize textbooks and complete online courses, but you will genuinely learn only by doing. That’s why 000webhost is the perfect platform for beginner webmasters. Everything you need to start the learning process and much more. No ads, no strings attached. Get Started
Hostinger logo
Limited time offer. Only now 90% OFF!
Get started
Swipe Up
Hostinger logo

Limited time offer

90% OFF

Get Hostinger’s Fast & Secure Web Hosting with an SSL Certificate for FREE!

Get started now
Close

TRAFFIC SCHEDULE

No Flights scheduled

LIVE ATC


Banner
Santa Maria Control: 132.150
Santa Maria Approach: 119.100
P. Delgada Approach: 119.400
Lajes Approach: 135.000
Lajes Tower: 122.100

PORTUGAL VACC LOGIN

JOIN PORTUGAL vACC


Banner
Join Portugal vACC as Air Traffic Controller and be part of our team


Banner
Join Portugal vACC as a pilot

QUICK LINKS


Banner
Banner
Banner

GET SOCIAL

Welcome

Welcome Santa Maria FIR here you will find information regarding virtual flying in Santa Maria Oceanic Fir.

Portugal VACC provides Virtual Air Traffic Control to Santa Maria Oceanic on the VATSIM network. All you need to know about virtual flying in Santa Maria Oceanic Fir can be found on this site.

Santa Maria Fir is well known for true real life procedures of Air Traffic Control and for our excellent virtual ATC skills. Our mission is to provide a realistic Air Traffic Control service all over Portuguese air space, and make the virtual pilot's experience to be as real as it gets while they fly in Portuguese air space through the VATSIM network.

 

vACC Chart Center

fireevent

Pilots and controllers are encouraged to access our chart center with chart information for all LPPC main airports. Visit this new tool which is essential for a better experience at our airports.

Briefing Room

fireevent

Briefing Room is a online platform where pilots can plan a flight or create a flight plan. Routes, Charts, Weather information can be found here. Enjoy our Briefing Room

Latest Metars

Santa Maria LPAZ 132030Z 31017KT 9999 SCT026 19/13 Q1021
Ponta Delgada LPPD 132030Z 33008KT 300V010 9999 FEW020 FEW025TCU 19/13 Q1021
Lajes LPLA 132000Z /////KT 9999 FEW022 SCT035 19/14 Q1021
Horta LPHR 132030Z 32012KT 290V360 9999 FEW018 SCT045 19/13 Q1023
Flores LPFL 131800Z 33014G28KT 300V360 9999 FEW035 19/11 Q1023

News

Welcome to our new website This new version is more intuitive and with new functionalities such as Briefing Room. Hope you enjoy exploring our new site.

Notam

NO NOTAMS (0)
08-29-2012


See All →

Webmaster